Location: Alsip
(41.6689°N, 87.7387°W)
Time: 14:39:15
(UTC+00:00)

NOSS 3-4 (A) - Pass Details

Date: 14 July 2020
Orbit: 892 x 1320 km, 63.4° (Epoch: 12 July)

Event Time Altitude Azimuth Distance (km) Brightness Sun altitude
Rises 03:01:14 0° 324° (NW) 3,850 8.5 -14.8°
Reaches altitude 10° 03:03:46 10° 325° (NW) 2,951 7.4 -15.1°
Maximum altitude 03:10:53 89° 52° (NE) 1,185 3.9 -16.0°
Enters shadow 03:16:05 23° 146° (SSE) 2,345 4.8 -16.6°
